Home > Weather > Escondido > Past weeks

Flag for U.S.A. Weather for the Past 2 Weeks in Escondido, California, U.S.A.

Now
84 °F

Sunny.


Feels Like: 81 °F
Forecast: 54 / 88 °F
Wind: 13 mph from East

Location: Ramona Airport

Current Time: Feb 9, 2016 at 3:18:45 PM

Latest Report: Feb 9, 2016 at 1:53 PM


Visibility: 10 mi

Pressure: 30.06 "Hg

Humidity: 15%

Dew point: 31 °F

Location of EscondidoLocation

Historic Weather in Escondido — Graph

°F

Escondido Temperature Yesterday

Maximum temperature yesterday: 79 °F (at 12:53 PM)
Minimum temperature yesterday: 56 °F (at 11:53 PM)
Average temperature yesterday: 70 °F

High & Low Weather Summary for the Past Weeks

 TemperatureHumidityPressure
High84 °F (Feb 9, 12:53 PM)96% (Jan 31, 2:00 AM)30.34 "Hg (Jan 31, 2:00 AM)
Low27 °F (Feb 2, 4:53 AM)11% (Feb 7, 12:53 PM)29.64 "Hg (Jan 31, 2:53 PM)
Average54 °F46%30.12 "Hg
* Reported Jan 25 1:53 PM — Feb 9 1:53 PM, Escondido, Weather by CustomWeather, © 2016

Note: Actual official high and low records may vary slightly from our data, if they occured in-between our weather recording intervals... More about our weather records

Advertising

Escondido Weather History for the Previous 24 Hours

 ConditionsComfort  
Time TempWeatherWind HumidityBarometerVisibility
1:53 PM
Tue, Feb 9
84 °FSunny.13 mph15%30.06 "Hg10 mi
12:53 PM84 °FSunny.14 mph15%30.08 "Hg10 mi
11:53 AM82 °FSunny.3 mph16%30.11 "Hg10 mi
10:53 AM80 °FSunny.5 mph15%30.13 "Hg10 mi
9:53 AM75 °FSunny.5 mph20%30.14 "Hg10 mi
8:53 AM68 °FSunny.5 mph36%30.15 "Hg10 mi
7:53 AM55 °FSunny.No wind49%30.14 "Hg10 mi
6:53 AM46 °FSunny.No wind54%30.13 "Hg10 mi
5:53 AM44 °FClear.7 mph60%30.12 "Hg10 mi
4:53 AM46 °FClear.No wind51%30.11 "Hg10 mi
3:53 AM44 °FClear.No wind58%30.11 "Hg10 mi
2:53 AM49 °FClear.No wind44%30.10 "Hg10 mi
1:53 AM53 °FClear.5 mph37%30.10 "Hg10 mi
12:53 AM50 °FClear.No wind43%30.11 "Hg10 mi
11:53 PM
Mon, Feb 8
56 °FClear.No wind30%30.12 "Hg10 mi
10:53 PM58 °FClear.No wind28%30.12 "Hg10 mi
9:53 PM71 °FClear.14 mph14%30.10 "Hg10 mi
8:53 PM67 °FClear.9 mph17%30.09 "Hg10 mi
7:53 PM70 °FClear.8 mph15%30.09 "Hg10 mi
6:53 PM70 °FClear.14 mph16%30.08 "Hg10 mi
5:53 PM71 °FClear.16 mph16%30.09 "Hg10 mi
4:53 PM74 °FSunny.13 mph15%30.08 "Hg10 mi
3:53 PM76 °FSunny.13 mph15%30.08 "Hg10 mi
Weather by CustomWeather, © 2016

See weather overviewHow to use our weather pages